Time,TemperatureF,DewpointF,PressureIn,WindDirection,WindDirectionDegrees,WindSpeedMPH,WindSpeedGustMPH,Humidity,HourlyPrecipIn,Conditions,Clouds,dailyrainin,SoftwareType,DateUTC
2013-01-06 16:03:00,78.0,64.0,30.06,NNW,340,5.0,7.0,63,0.48,,,-99.99,,2013-01-06 21:03:00,
2013-01-06 16:12:00,78.0,64.0,30.06,NNW,340,5.0,7.0,63,0.48,,,-99.99,,2013-01-06 21:12:00,
2013-01-06 16:22:00,78.0,64.0,30.06,NNW,339,4.0,6.0,62,0.48,,,-99.99,,2013-01-06 21:22:00,
2013-01-06 16:33:00,78.0,64.0,30.06,NW,322,4.0,8.0,63,0.48,,,-99.99,,2013-01-06 21:33:00,
2013-01-06 16:42:00,78.0,64.0,30.06,NW,322,4.0,8.0,63,0.48,,,-99.99,,2013-01-06 21:42:00,
2013-01-06 16:53:00,77.0,64.0,30.06,North,356,4.0,6.0,64,0.48,,,-99.99,,2013-01-06 21:53:00,
2013-01-06 17:02:00,77.0,63.0,30.06,NNW,343,6.0,8.0,63,0.48,,,-99.99,,2013-01-06 22:02:00,
2013-01-06 17:12:00,77.0,63.0,30.06,NNW,343,6.0,8.0,63,0.48,,,-99.99,,2013-01-06 22:12:00,
2013-01-06 17:22:00,75.0,62.0,30.07,NNW,339,8.0,11.0,65,0.48,,,-99.99,,2013-01-06 22:22:00,
2013-01-06 17:33:00,75.0,62.0,30.07,NNW,343,4.0,7.0,65,0.48,,,-99.99,,2013-01-06 22:33:00,
2013-01-06 17:43:00,75.0,62.0,30.07,NNW,343,4.0,7.0,65,0.48,,,-99.99,,2013-01-06 22:43:00,
2013-01-06 17:53:00,74.0,61.0,30.07,North,353,2.0,4.0,65,0.48,,,-99.99,,2013-01-06 22:53:00,
2013-01-06 18:02:00,74.0,61.0,30.08,North,0,0.0,0.0,65,0.48,,,-99.99,,2013-01-06 23:02:00,
2013-01-06 18:12:00,74.0,61.0,30.08,North,0,0.0,0.0,65,0.48,,,-99.99,,2013-01-06 23:12:00,
2013-01-06 18:22:00,73.0,64.0,30.09,SSW,204,7.0,10.0,73,0.48,,,-99.99,,2013-01-06 23:22:00,
2013-01-06 18:33:00,71.0,71.0,30.09,SSE,163,5.0,7.0,100,0.48,,,-99.99,,2013-01-06 23:33:00,
2013-01-06 18:43:00,71.0,71.0,30.09,SSE,163,5.0,7.0,100,0.48,,,-99.99,,2013-01-06 23:43:00,
2013-01-06 18:53:00,69.0,69.0,30.10,South,187,7.0,10.0,100,0.48,,,-99.99,,2013-01-06 23:53:00,
2013-01-06 19:02:00,69.0,69.0,30.10,WNW,288,8.0,16.0,100,0.48,,,-99.99,,2013-01-07 00:02:00,
2013-01-06 19:12:00,69.0,69.0,30.10,WNW,288,8.0,16.0,100,0.48,,,-99.99,,2013-01-07 00:12:00,
2013-01-06 19:23:00,68.0,68.0,30.09,NW,318,7.0,8.0,100,0.48,,,-99.99,,2013-01-07 00:23:00,
2013-01-06 19:33:00,68.0,68.0,30.10,NNW,336,5.0,7.0,100,0.48,,,-99.99,,2013-01-07 00:33:00,
2013-01-06 19:42:00,68.0,68.0,30.10,NNW,336,5.0,7.0,100,0.48,,,-99.99,,2013-01-07 00:42:00,
2013-01-06 19:53:00,68.0,68.0,30.10,NNW,335,5.0,7.0,100,0.48,,,-99.99,,2013-01-07 00:53:00,
2013-01-06 20:02:00,69.0,69.0,30.10,NW,322,5.0,7.0,100,0.48,,,-99.99,,2013-01-07 01:02:00,
2013-01-06 20:12:00,69.0,69.0,30.10,NNW,340,5.0,7.0,100,0.48,,,-99.99,,2013-01-07 01:12:00,
2013-01-06 20:23:00,69.0,69.0,30.10,NNW,340,5.0,7.0,100,0.48,,,-99.99,,2013-01-07 01:23:00,
2013-01-06 20:32:00,69.0,69.0,30.11,NNW,342,6.0,9.0,100,0.48,,,-99.99,,2013-01-07 01:32:00,
2013-01-06 20:42:00,69.0,69.0,30.11,NNW,342,6.0,9.0,100,0.48,,,-99.99,,2013-01-07 01:42:00,
2013-01-06 20:53:00,69.0,69.0,30.11,North,356,5.0,6.0,100,0.48,,,-99.99,,2013-01-07 01:53:00,
2013-01-06 21:02:00,69.0,69.0,30.10,North,356,6.0,8.0,100,0.48,,,-99.99,,2013-01-07 02:02:00,
2013-01-06 21:12:00,69.0,69.0,30.10,North,356,6.0,8.0,100,0.48,,,-99.99,,2013-01-07 02:12:00,
2013-01-06 21:23:00,68.0,68.0,30.11,North,353,5.0,7.0,100,0.48,,,-99.99,,2013-01-07 02:23:00,
2013-01-06 21:32:00,68.0,68.0,30.11,North,353,4.0,6.0,100,0.48,,,-99.99,,2013-01-07 02:32:00,
2013-01-06 21:42:00,68.0,68.0,30.11,North,353,4.0,6.0,100,0.48,,,-99.99,,2013-01-07 02:42:00,
2013-01-06 21:53:00,68.0,68.0,30.12,NNW,346,4.0,5.0,100,0.48,,,-99.99,,2013-01-07 02:53:00,
2013-01-06 22:02:00,68.0,68.0,30.12,NW,326,4.0,5.0,100,0.48,,,-99.99,,2013-01-07 03:02:00,
2013-01-06 22:12:00,68.0,68.0,30.12,NW,326,4.0,5.0,100,0.48,,,-99.99,,2013-01-07 03:12:00,
2013-01-06 22:22:00,68.0,68.0,30.12,NNW,338,5.0,8.0,100,0.48,,,-99.99,,2013-01-07 03:22:00,
2013-01-06 22:33:00,68.0,68.0,30.12,NNW,336,5.0,7.0,100,0.48,,,-99.99,,2013-01-07 03:33:00,
2013-01-06 22:43:00,68.0,68.0,30.12,NNW,336,5.0,7.0,100,0.48,,,-99.99,,2013-01-07 03:43:00,
2013-01-06 22:53:00,68.0,68.0,30.12,North,350,5.0,8.0,100,0.48,,,-99.99,,2013-01-07 03:53:00,
2013-01-06 23:02:00,68.0,68.0,30.12,North,356,1.0,3.0,100,0.48,,,-99.99,,2013-01-07 04:02:00,
2013-01-06 23:12:00,68.0,68.0,30.12,North,356,1.0,3.0,100,0.48,,,-99.99,,2013-01-07 04:12:00,
2013-01-06 23:22:00,68.0,68.0,30.12,ENE,72,2.0,4.0,100,0.48,,,-99.99,,2013-01-07 04:22:00,
2013-01-06 23:32:00,68.0,68.0,30.11,ENE,68,1.0,3.0,100,0.48,,,-99.99,,2013-01-07 04:32:00,
2013-01-06 23:42:00,68.0,68.0,30.11,ENE,68,1.0,3.0,100,0.48,,,-99.99,,2013-01-07 04:42:00,
2013-01-06 23:52:00,68.0,68.0,30.12,East,79,2.0,5.0,100,0.48,,,-99.99,,2013-01-07 04:52:00,